This is the latest recevied weather packets stored in our database for station/object SQ7RAF-15. If no packets are shown the sender has not sent any weather packets the latest 1 day(s).
| Time | Temp. | Humidity | Pressure | Rain* | Wind** | Luminosity | Snow |
|---|---|---|---|---|---|---|---|
| 1777990825 | 27.78° C | 26% | 1005.3 hPa | 0 mm | 1.34 m/s, 234° | 181 W/m² | - |
| 1777990536 | 27.78° C | 26% | 1005.3 hPa | 0 mm | 1.34 m/s, 207° | 320 W/m² | - |
| 1777990216 | 28.33° C | 26% | 1005.4 hPa | 0 mm | 1.34 m/s, 211° | 371 W/m² | - |
| 1777989944 | 27.78° C | 26% | 1005.4 hPa | 0 mm | 1.34 m/s, 200° | 380 W/m² | - |
| 1777989624 | 27.78° C | 26% | 1005.5 hPa | 0 mm | 1.34 m/s, 188° | 275 W/m² | - |
| 1777989320 | 27.78° C | 26% | 1005.5 hPa | 0 mm | 1.79 m/s, 196° | 369 W/m² | - |
| 1777989032 | 28.33° C | 25% | 1005.5 hPa | 0 mm | 1.34 m/s, 205° | 379 W/m² | - |
| 1777988744 | 28.33° C | 25% | 1005.6 hPa | 0 mm | 1.79 m/s, 181° | 323 W/m² | - |
| 1777988424 | 28.33° C | 25% | 1005.6 hPa | 0 mm | 0.89 m/s, 210° | 310 W/m² | - |
| 1777988136 | 27.78° C | 25% | 1005.7 hPa | 0 mm | 1.34 m/s, 203° | 403 W/m² | - |
| 1777987816 | 27.78° C | 25% | 1005.8 hPa | 0 mm | 1.79 m/s, 192° | 370 W/m² | - |
| 1777987528 | 27.78° C | 26% | 1005.8 hPa | 0 mm | 2.24 m/s, 198° | 401 W/m² | - |
| 1777987225 | 27.78° C | 27% | 1005.8 hPa | 0 mm | 1.79 m/s, 191° | 421 W/m² | - |
| 1777986920 | 28.33° C | 27% | 1005.9 hPa | 0 mm | 1.34 m/s, 143° | 403 W/m² | - |
| 1777986632 | 28.33° C | 28% | 1005.8 hPa | 0 mm | 0.89 m/s, 235° | 447 W/m² | - |
| 1777986344 | 27.22° C | 28% | 1006 hPa | 0 mm | 2.24 m/s, 156° | 538 W/m² | - |
| 1777986041 | 27.22° C | 28% | 1006.1 hPa | 0 mm | 1.79 m/s, 196° | 387 W/m² | - |
| 1777985736 | 27.22° C | 28% | 1006.1 hPa | 0 mm | 2.24 m/s, 158° | 420 W/m² | - |
| 1777985433 | 27.78° C | 28% | 1006.2 hPa | 0 mm | 2.24 m/s, 195° | 357 W/m² | - |
| 1777985144 | 27.22° C | 27% | 1006.3 hPa | 0 mm | 1.34 m/s, 154° | 387 W/m² | - |
| 1777984824 | 28.33° C | 26% | 1006.3 hPa | 0 mm | 1.79 m/s, 163° | 423 W/m² | - |
| 1777984521 | 28.33° C | 26% | 1006.3 hPa | 0 mm | 1.79 m/s, 157° | 450 W/m² | - |
| 1777984232 | 28.33° C | 26% | 1006.3 hPa | 0 mm | 1.34 m/s, 208° | 443 W/m² | - |
| 1777983945 | 28.33° C | 26% | 1006.4 hPa | 0 mm | 1.79 m/s, 163° | 490 W/m² | - |
| 1777983625 | 27.78° C | 26% | 1006.5 hPa | 0 mm | 1.34 m/s, 207° | 498 W/m² | - |
* Rain latest hour (hover to see other rain measurements)
** Current wind speed in m/s (hover to see current wind gust speed)